Weather Roundup
Issued by NWS Springfield, MO

Home | Current Version | Previous Version | Text Only | Print | Product List | Glossary On
Versions: 1 2 3 4 5 6 7 8 9 10 11 12 13 14 15 16 17 18 19 20 21 22 23 24 25 26 27 28 29 30 31 32 33 34 35 36 37 38 39 40 41 42 43 44 45 46 47 48 49 50
000
NZUS99 KSGF 280107
HRRSGF

HOURLY WEATHER
NATIONAL WEATHER SERVICE SPRINGFIELD MO
700 PM CST TUE JAN 27 2015

......SGF CWA......

CITY           SKY/WX    TMP DP  RH WIND       PRES   REMARKS
SPRINGFIELD    CLEAR     43  27  53 E5        30.12R
JOPLIN         CLEAR     53  27  36 E3        30.09R
WEST PLAINS    CLEAR     43  27  53 E3        30.16R
ROLLA          CLEAR     35  29  78 E3        30.15R
OSAGE BEACH    CLEAR     46  28  49 E6        30.15S
BRANSON        CLEAR     46  27  46 CALM      30.13R

......SURROUNDING SGF CWA......

CITY           SKY/WX    TMP DP  RH WIND       PRES   REMARKS
CHANUTE        CLEAR     51  34  52 SE7       30.06S
PARSONS        CLEAR     54  35  48 SE3       30.06F
COFFEYVILLE    CLEAR     52  34  50 SE6       30.05F
EMPORIA        CLEAR     52  35  52 SE12      30.02S
GROVE OK       CLEAR     52  32  46 CALM      30.09S
ROGERS AR      CLEAR     53  27  36 SE6       30.11S
SILOAM SPRINGS CLEAR     55  27  33 SE3       30.12R
HARRISON AR    CLEAR     54  27  35 CALM      30.13R
NEAR YELLVILLE CLEAR     48  28  46 CALM      30.13R

......KANSAS AND MISSOURI......

CITY           SKY/WX    TMP DP  RH WIND       PRES   REMARKS
KANSAS CTY INT CLEAR     47  31  53 E12       30.09R
DOWNTOWN KC    CLEAR     51  31  46 E5        30.10R
COLUMBIA       CLEAR     40  32  73 E9        30.16S WCI  34
SEDALIA        CLEAR     44  31  60 E5        30.15R
ST JOSEPH      CLEAR     47  30  51 E10       30.09R
ST LOUIS       CLEAR     34  27  75 E9        30.23R WCI  27
SPIRIT OF STL  CLEAR     36  30  79 NE9       30.21R WCI  29
KIRKSVILLE     CLEAR     35  32  88 E9        30.17S WCI  28
WICHITA        CLEAR     60  36  40 S12       29.99S
TOPEKA         CLEAR     48  32  53 E8        30.05S
OLATHE         CLEAR     48  31  51 E6        30.09R

......TENNESSEE......

CITY           SKY/WX    TMP DP  RH WIND       PRES   REMARKS
MEMPHIS        CLEAR     48  34  58 NE8       30.19R
NASHVILLE      CLOUDY    37  30  75 N7        30.20R WCI  32

......ARKANSAS.......

CITY           SKY/WX    TMP DP  RH WIND       PRES   REMARKS
FAYETTEVILLE   CLEAR     44  31  60 CALM      30.12R
FT SMITH       CLEAR     55  34  45 CALM      30.10R
LITTLE ROCK    CLEAR     52  36  54 SE5       30.15R

......OKLAHOMA.......

CITY           SKY/WX    TMP DP  RH WIND       PRES   REMARKS
TULSA          PTCLDY    61  37  41 SE8       30.05S
PONCA CITY     CLEAR     67  35  30 S8        30.02S
MCALESTER      PTCLDY    57  37  47 CALM      30.09R
OKLAHOMA CITY  MOCLDY    58  35  42 S9        30.06S

......IOWA............

CITY           SKY/WX    TMP DP  RH WIND       PRES   REMARKS
DES MOINES     CLEAR     36  29  75 SE10      30.15S WCI  28
QUAD CITIES    CLOUDY    27  22  81 SE6       30.24S WCI  20

......ILLINOIS........

CITY           SKY/WX    TMP DP  RH WIND       PRES   REMARKS
QUINCY         CLEAR     30  26  85 E9        30.21R WCI  22
CHICAGO        PTCLDY    25  16  68 NE6       30.24R WCI  18




USA.gov is the U.S. government's official web portal to all federal, state and local government web resources and services.